Language selection

My Weather Profile Weather Topics  | 

Atlantic - Labrador: Past 24 Hour Conditions

 

Mary's Harbour

04:30 PM NDT 13 May 2021
Disclaimer

This table is a summary of hourly weather conditions for the past 24 hours.
Please note that these observations might not always be representative of weather conditions over their associated marine area.

Date / Time
(NDT)
Wind(knots) Conditions Visibility(km) Pressure(kPa) Air tempC) Relative humidity(%) Dew pointC)
13 May 2021
16:30 NNW 14 gust 25 Light Rain 16 100.3 5 86 3
15:30 NNW 14 gust 23 Light Rain 16 100.3 5 86 3
14:30 NNW 13 gust 20 Light Rain 16 100.2 5 88 3
13:30 NW 16 gust 21 Light Rain 16 100.2 5 89 3
12:30 NW 15 gust 21 Cloudy 16 100.1 4 87 2
11:30 NW 16 gust 22 Cloudy 16 100.1 4 87 2
10:30 NW 14 gust 22 Cloudy 16 100.1 3 90 2
9:30 NW 13 gust 19 Cloudy 16 100.1 3 92 2
8:30 WNW 13 gust 18 Cloudy 16 100.0 3 94 2
7:30 NW 13 gust 19 Light Rain 16 100.0 2 95 1
6:30 NW 13 gust 20 Light Rain 16 100.0 2 95 1
5:30 NW 12 gust 19 Light Rain 16 100.0 2 95 1
4:30 NW 13 gust 21 Light Rain 16 100.0 1 95 1
3:30 NW 13 gust 21 Light Rain 16 100.0 2 94 1
2:30 NW 14 gust 20 Light Rain 16 100.0 2 93 1
1:30 NW 14 gust 21 Light Rain 16 100.1 2 93 1
0:30 NW 16 gust 23 Light Rain 16 100.1 2 93 1
12 May 2021
23:30 NW 18 gust 25 Light Rain 16 100.2 2 91 1
22:30 NW 13 gust 26 Light Rain 16 100.2 2 92 1
21:30 NW 16 gust 23 Light Rain 16 100.3 2 93 1
20:30 NW 15 gust 25 Light Rain 15 100.3 2 94 1
19:30 NW 16 gust 21 Light Rain 16 100.3 2 92 1
18:30 NNW 16 gust 24 Light Rain 16 100.4 3 93 2
17:30 NNW 16 gust 23 Light Rain 16 100.4 3 94 2
16:30 NNW 16 gust 26 Light Rain 15 100.4 3 93 2

Zoom-in to make a selection

Map of Atlantic - Labrador marine weather areas Kangiqsualujjuaq Airport Cape Kakkiviak Cape Kiglapait Cartwright Airport CFB Goose Bay Hopedale Mary's Harbour Nain Airport Makkovik Airport Saglek Tukialik Bay
Legend:
buoy Buoy
land station Land Station

Atlantic - Labrador Area

Another Region

What we are doing

Date modified: